Location: Franzen
(48.6167°N, 15.3833°E)
Time: 14:15:45
(UTC+00:00)

ARIANE 5 R/B - Pass Details

Date: 31 July 2021
Orbit: 622 x 654 km, 98.1° (Epoch: 23 September)

Event Time Altitude Azimuth Distance (km) Brightness Sun altitude
Exits shadow 21:13:18 16° 214° (SW) 1,670 4.5 -18.9°
Maximum altitude 21:16:02 29° 265° (W) 1,191 4.2 -19.1°
Drops below altitude 10° 21:19:54 10° 325° (NW) 2,040 6.4 -19.4°
Sets 21:22:22 0° 337° (NNW) 2,948 7.7 -19.5°
